Regional Weather Roundup
Issued by NWS Kansas City/Pleasant Hill, MO

Home | Current Version | Previous Version | Text Only | Print | Product List | Glossary On
Versions: 1 2 3 4 5 6 7 8 9 10 11 12 13 14 15 16 17 18 19 20 21 22 23 24 25 26 27
000
ASUS43 KEAX 051210
RWREAX

WEATHER ROUNDUP FOR EASTERN KANSAS AND NORTHWEST MISSOURI
NATIONAL WEATHER SERVICE KANSAS CITY/PLEASANT HILL MO
700 AM CDT THU MAY 05 2016

KSZ040-057-103>105-MOZ028-029-037-043-051300-
...KANSAS CITY METROPOLITAN AREA...

CITY           SKY/WX    TMP DP  RH WIND       PRES   REMARKS
K.C. INTL      PTCLDY    48  40  73 NW6       30.05R
6HR MIN TEMP:  47; 6HR MAX TEMP:  54;

K.C. DOWNTOWN  CLEAR     49  44  83 CALM      30.04R
6HR MIN TEMP:  46; 6HR MAX TEMP:  53;

LEES SUMMIT    CLEAR     49  40  71 NW6       30.04R
6HR MIN TEMP:  47; 6HR MAX TEMP:  55;

OLATHE - IXD   CLEAR     47  41  80 NW7       30.05R
6HR MIN TEMP:  46; 6HR MAX TEMP:  52;

OLATHE - OJC   CLEAR     49  40  71 NW6       30.05R
6HR MIN TEMP:  48; 6HR MAX TEMP:  53;

LAWRENCE       CLEAR     43  41  93 NW7       30.05R

$$

MOZ001>008-011>017-020>025-030>033-038>040-044>046-053-054-051300-
...NORTHERN AND CENTRAL MISSOURI...

CITY           SKY/WX    TMP DP  RH WIND       PRES   REMARKS
ST. JOSEPH     CLEAR     42  41  96 NW3       30.06R
6HR MIN TEMP:  41; 6HR MAX TEMP:  49;

MOSBY          SUNNY     41  41 100 CALM      30.04R
WARRENSBURG    CLEAR     46  37  71 NW3       30.03R
WHITEMAN AFB   CLEAR     47  42  83 N2        30.02R
6HR MIN TEMP:  44; 6HR MAX TEMP:  51;

CLINTON        CLEAR     45  39  81 CALM      30.03R
SEDALIA        CLEAR     48  40  73 NW6       30.03R
6HR MIN TEMP:  47; 6HR MAX TEMP:  53;

WARSAW         NOT AVBL
CHILLICOTHE      N/A     45  41  86 CALM      30.05R
6HR MIN TEMP:  42; 6HR MAX TEMP:  53;

KIRKSVILLE     CLEAR     44  34  67 N6        30.03R
6HR MIN TEMP:  41; 6HR MAX TEMP:  50;


$$

MOZ041-047>049-056>058-063>065-088>090-097-051300-
...EASTERN AND SOUTHERN MISSOURI...

CITY           SKY/WX    TMP DP  RH WIND       PRES   REMARKS
ST. LOUIS INTL SUNNY     49  38  65 N10       29.97R
6HR MIN TEMP:  47; 6HR MAX TEMP:  52;

SPIRIT OF STL  SUNNY     49  39  68 N6        29.97R
COLUMBIA       CLEAR     46  39  76 NW5       30.00R
JEFFERSON CITY CLEAR     44  40  85 NW3       30.00R
ROLLA          CLEAR     46  38  73 NW6       29.96R
OSAGE BEACH    CLEAR     43  34  70 W3        30.00R
SPRINGFIELD    CLEAR     48  37  65 W3        30.01R
BRANSON        CLEAR     46  39  76 SW6       30.02R
JOPLIN         CLEAR     44  41  89 CALM      30.05R
WEST PLAINS    CLEAR     49  36  61 NW7       29.98R

$$

IAZ060-094-KSZ022-034>040-054-083-096-NEZ052-066-093-051300-
...KANSAS...SOUTHEAST NEBRASKA AND IOWA...

CITY           SKY/WX    TMP DP  RH WIND       PRES   REMARKS
TOPEKA         CLEAR     47  43  86 W6        30.06R
6HR MIN TEMP:  46; 6HR MAX TEMP:  49;

MANHATTAN      CLEAR     42  38  85 CALM      30.08R
EMPORIA        CLEAR     45  40  82 W6        30.07R
CHANUTE        CLEAR     46  41  82 CALM      30.06R
WICHITA        CLEAR     46  40  79 CALM      30.08R
OMAHA          PTCLDY    43  39  86 N3        30.07R
LINCOLN        CLEAR     43  39  86 CALM      30.09R
FALLS CITY     CLEAR     44  39  82 NW6       30.05R
LAMONI         CLEAR     45  37  73 N6        30.05R
DES MOINES     PTCLDY    47  34  60 CALM      30.06R

$$





USA.gov is the U.S. government's official web portal to all federal, state and local government web resources and services.